Regional Weather Roundup
Issued by NWS State College, PA

Home | Current Version | Previous Version | Text Only | Print | Product List | Glossary On
Versions: 1 2 3 4 5 6 7 8 9 10 11 12 13 14 15 16 17 18 19 20 21 22 23 24 25 26 27 28 29 30 31 32 33 34 35 36 37 38 39 40 41 42 43 44 45 46 47 48 49 50
000
ASUS41 KCTP 120203
RWRCTP

REGIONAL WEATHER ROUNDUP
NATIONAL WEATHER SERVICE STATE COLLEGE PA
900 PM EST MON DEC 11 2017

Note: "fair" indicates few or no clouds below 12,000 feet with no
significant weather and/or obstructions to visibility.

* = STATION THAT DOES NOT REPORT PRECIPITATION /E.G. RAIN...SNOW...ETC/
    THUNDER OR FOG.

PAZ002>004-007>009-013>016-020>023-029>032-120300-
WESTERN PENNSYLVANIA

CITY           SKY/WX    TMP DP  RH WIND       PRES   REMARKS
ERIE           CLOUDY    30  24  78 S9        29.74F
MEADVILLE      CLOUDY    28  25  88 CALM      29.72F
FRANKLIN*      MOCLDY    29  22  75 SE7       29.72F
NEW CASTLE     MOCLDY    31  24  75 VRB5      29.75F
BEAVER COUNTY  NOT AVBL
BUTLER*        CLOUDY    33  21  61 SE3       29.75F
PITTSBURGH INT CLOUDY    36  22  56 S3        29.74F
PITTSBURGH     CLOUDY    34  20  56 SE6       29.73F
INDIANA*       CLOUDY    34  23  64 CALM      29.80F
LATROBE        PTCLDY    32  25  74 CALM      29.78F
WASHINGTON CO* CLOUDY    30  23  75 W3        29.77F
$$

PAZ004>006-010>012-017>019-024>028-033>037-041-042-045-046-049>053-120300-
CENTRAL PENNSYLVANIA

CITY           SKY/WX    TMP DP  RH WIND       PRES   REMARKS
BRADFORD       CLOUDY    27  21  78 SE6       29.72F
DUBOIS         CLOUDY    31  20  63 SE6       29.74F
CLEARFIELD     CLOUDY    31  21  66 N7        29.79F
JOHNSTOWN      CLOUDY    33  21  61 S7        29.74F
ALTOONA        PTCLDY    35  22  58 CALM      29.79F
STATE COLLEGE  CLOUDY    34  21  60 CALM      29.82F
WILLIAMSPORT   CLOUDY    37  22  54 E9G18     29.86F
SELINSGROVE    CLOUDY    37  24  59 S8        29.90F
FT INDIANTOWN  CLOUDY    34  26  73 NE3       29.92F
CAPITAL CITY   CLOUDY    38  24  57 SE9       29.91F
HARRISBURG     CLOUDY    36  26  67 SE8       29.91F
YORK           CLEAR     33  27  78 SE6       29.90F
$$

PAZ038>040-043-044-047-048-054-055-060>062-067>071-120300-
EASTERN PENNSYLVANIA

CITY           SKY/WX    TMP DP  RH WIND       PRES   REMARKS
SCRANTON       CLOUDY    33  21  61 CALM      29.90F
MOUNT POCONO   CLOUDY    27  19  72 SE5       29.87F
ALLENTOWN      CLOUDY    37  22  54 SE5       29.96F
QUAKERTOWN*    MOCLDY    32  25  74 CALM      29.96F
READING        PTCLDY    36  25  64 S7        29.94F
LANCASTER      PTCLDY    31  27  85 SE5       29.94F
COATESVILLE    MOCLDY    34  23  64 SE5       29.96S
POTTSTOWN      CLOUDY    31  21  66 CALM      29.97F
BLUE BELL      CLOUDY    32  27  80 CALM      29.99S
DOYLESTOWN     CLOUDY    33  23  66 CALM      29.96F
WILLOW GROVE   NOT AVBL
NORTH PHILA    CLOUDY    37  26  64 SE5       30.00F
PHILADELPHIA   MOCLDY    36  24  62 SE3       29.99F
$$




USA.gov is the U.S. government's official web portal to all federal, state and local government web resources and services.